Hourly Data Report for June 03, 2006

TORONTO CITY
ONTARIO

43°40'00.000" N
79°24'00.000" W
112.50 m
6158355
71508
XTO

Download Data

Hourly Data (June 2006)
Hourly Data Report for June 3, 2006
TIME
LST
Temp Definition
°C
Dew Point Definition
°C
Rel Hum Definition
%
Precip. Amount Definition
mm

Wind Dir Definition
10's deg

Wind Spd Definition
km/h
Visibility Definition
km
Stn Press Definition
kPa
Hmdx Definition


Wind Chill Definition


Weather Definition


00:00 17.2 15.9 92   LegendMM LegendMM   99.90     LegendNANA
01:00 16.2 15.0 93   LegendMM LegendMM   99.83     LegendNANA
02:00 16.8 15.1 90   LegendMM LegendMM   99.68     LegendNANA
03:00 16.5 14.6 89   LegendMM LegendMM   99.64     LegendNANA
04:00 16.7 14.4 86   LegendMM LegendMM   99.66     LegendNANA
05:00 16.3 14.6 90   LegendMM LegendMM   99.72     LegendNANA
06:00 16.4 14.9 91   LegendMM LegendMM   99.77     LegendNANA
07:00 16.7 15.1 90   LegendMM LegendMM   99.79     LegendNANA
08:00 17.1 15.1 88   LegendMM LegendMM   99.81     LegendNANA
09:00 17.5 15.0 85   LegendMM LegendMM   99.84     LegendNANA
10:00 16.9 15.5 91   LegendMM LegendMM   99.85     LegendNANA
11:00 16.4 15.7 96   LegendMM LegendMM   99.85     LegendNANA
12:00 15.7 15.1 96   LegendMM LegendMM   99.84     LegendNANA
13:00 15.9 15.4 97   LegendMM LegendMM   99.79     LegendNANA
14:00 16.4 16.0 97   LegendMM LegendMM   99.75     LegendNANA
15:00 16.5 15.7 95   LegendMM LegendMM   99.75     LegendNANA
16:00 16.5 15.7 95   LegendMM LegendMM   99.76     LegendNANA
17:00 15.9 15.3 96   LegendMM LegendMM   99.77     LegendNANA
18:00 15.7 15.1 96   LegendMM LegendMM   99.85     LegendNANA
19:00 15.1 14.3 95   LegendMM LegendMM   99.89     LegendNANA
20:00 14.9 14.2 96   LegendMM LegendMM   99.92     LegendNANA
21:00 14.4 12.9 91   LegendMM LegendMM   99.97     LegendNANA
22:00 14.2 12.9 92   LegendMM LegendMM   99.95     LegendNANA
23:00 14.1 13.4 96   LegendMM LegendMM   99.95     LegendNANA

Notes on Data Quality.

Legend

  • E = Estimated
  • M = Missing
  • NA = Not Available*
  • [empty] = Indicates an unobserved value
Date modified: